Flag for Germany Weather past 2 weeks in Zittau, Saxony, Germany

Now
56 °F

Duststorm.


Feels Like: 56 °F
Forecast: 48 / 72 °F
Wind: 1 mph from Southwest

Location: Liberec

Current Time: Aug 30, 2014 at 1:03:48 AM

Latest Report: Aug 30, 2014 at 12:00 AM


Visibility: 0 mi

Pressure: 30.03 "Hg

Humidity: 99%

Dew point: 56 °F

Location of ZittauLocation

Historic Weather in Zittau — Graph

°F

Zittau temperature yesterday

Maximum temperature yesterday: 70 °F (at 4:00 PM)
Minimum temperature yesterday: 51 °F (at 1:00 AM)
Average temperature yesterday: 60 °F

Past Weeks' High & Low Weather Summary

 TemperatureHumidityPressure
High70 °F (Aug 29, 4:00 PM)100% (Aug 28, 7:00 AM)30.13 "Hg (Aug 28, 7:00 AM)
Low41 °F (Aug 25, 3:00 AM)37% (Aug 20, 4:00 PM)29.72 "Hg (Aug 26, 2:00 PM)
Average56 °F74%29.95 "Hg
* Reported Aug 14 11:00 PM — Aug 29 11:00 PM, Zittau, Weather by CustomWeather, © 2014

Note: Actual official high and low records may vary slightly from our data, if they occured in-between our weather recording intervals... More about our weather records

Advertising

Zittau weather history for previous 24 hours

 ConditionsComfort  
Time TempWeatherWind HumidityBarometerVisibility
11:00 PM
Aug 29
59 °FFog.1 mph98%30.02 "Hg1 mi
9:00 PM60 °FOvercast.1 mph96%30.01 "Hg8 mi
8:00 PM61 °FPassing clouds.2 mph94%29.99 "Hg9 mi
7:00 PM62 °FOvercast.3 mph89%29.98 "Hg9 mi
6:00 PM65 °FRain showers. Cloudy.3 mph69%29.98 "Hg12 mi
5:00 PM68 °FOvercast.3 mph55%29.97 "Hg22 mi
4:00 PM70 °FOvercast.5 mph50%29.97 "Hg22 mi
3:00 PM68 °FOvercast.3 mph53%29.99 "Hg22 mi
2:00 PM68 °FOvercast.5 mph51%30.00 "Hg19 mi
1:00 PM66 °FPartly sunny.5 mph52%30.01 "Hg19 mi
12:00 PM65 °FPartly sunny.3 mph56%30.02 "Hg19 mi
11:00 AM60 °FLight rain. Overcast.5 mph62%30.04 "Hg11 mi
10:00 AM62 °FOvercast.5 mph58%30.04 "Hg19 mi
9:00 AM60 °FOvercast.3 mph58%30.05 "Hg17 mi
8:00 AM57 °FOvercast.3 mph65%30.06 "Hg16 mi
7:00 AM56 °FCool.3 mph64%30.06 "Hg12 mi
6:00 AM53 °FCool.3 mph69%30.06 "Hg12 mi
5:00 AM54 °FCool.2 mph66%30.07 "Hg12 mi
4:00 AM54 °FCool.2 mph70%30.08 "Hg12 mi
3:00 AM53 °FCool.2 mph75%30.09 "Hg12 mi
2:00 AM51 °FCool.2 mph78%30.10 "Hg12 mi
1:00 AM51 °FCool.2 mph79%30.11 "Hg12 mi
Weather by CustomWeather, © 2014

See weather overviewHow to use our weather pages